Mount Vernon, IL

10:28 AM CDT on July 22, 2017 (GMT -0500)
Mount Vernon

Weather History for KMVN - April, 2014

Change the Weather History Date:

Monday, April 28, 2014

  Actual Average Record
Temperature  
Mean Temperature 63 °F -  
Max Temperature 69 °F 68 °F 78 °F (2001)
Min Temperature 57 °F 47 °F 35 °F (2015)
Degree Days  
Heating Degree Days 2    
Growing Degree Days 13 (Base 50)    
Moisture  
Dew Point 52 °F    
Average Humidity 69    
Maximum Humidity 77    
Minimum Humidity 59    
Precipitation  
Precipitation 1.40 in - - ()
Sea Level Pressure  
Sea Level Pressure 29.57 in    
Wind  
Wind Speed 9 mph (SSE)    
Max Wind Speed 22 mph    
Max Gust Speed 33 mph    
Visibility 10 miles    
Events Thunderstorm    
Averages and records for this station are not official NWS values.
T = Trace of Precipitation, MM = Missing Value Source: NWS Daily Summary

Daily Weather History Graph

Daily Weather History Graph

Search for Another Location

Airport or City:

Trip Planner

Search our weather history database for the weather conditions in past years. The results will help you decide how hot, cold, wet, or windy it might be!

Date:

Astronomy

Apr. 28, 2014 Rise Set
Actual Time 6:02 AM CDT 7:44 PM CDT
Civil Twilight 5:34 AM CDT 8:12 PM CDT
Nautical Twilight 4:59 AM CDT 8:46 PM CDT
Astronomical Twilight 4:23 AM CDT 9:23 PM CDT
Moon 5:39 AM CDT (4/28) 7:22 PM CDT (4/28)
Length of Visible Light 14h 38m
Length of Day
13h 41m
Waning Crescent, 0% of the Moon is Illuminated
Apr 28
Waning Crescent
Apr 29
New
May 6
First Quarter
May 14
Full
May 21
Last Quarter

Hourly Weather History & Observations

Time (CDT) Temp. Dew Point Humidity Pressure Visibility Wind Dir Wind Speed Gust Speed Precip Events Conditions
12:15 AM 64.4 °F 53.6 °F 68% 29.75 in 9.0 mi South 3.5 mph - 0.09 in Thunderstorm Scattered Clouds
12:35 AM 62.6 °F 55.4 °F 77% 29.76 in 7.0 mi SW 4.6 mph - 0.18 in Thunderstorm Mostly Cloudy
12:55 AM 62.6 °F 53.6 °F 72% 29.75 in 5.0 mi Calm Calm - 0.34 in Thunderstorm Mostly Cloudy
1:15 AM 62.6 °F 53.6 °F 72% 29.73 in 3.0 mi Calm Calm - 0.14 in Thunderstorm Mostly Cloudy
1:35 AM 62.6 °F 53.6 °F 72% 29.68 in 3.0 mi ENE 5.8 mph - 0.25 in Thunderstorm Mostly Cloudy
1:55 AM 62.6 °F 53.6 °F 72% 29.67 in 5.0 mi ENE 4.6 mph - 0.33 in Thunderstorm Mostly Cloudy
2:15 AM 62.6 °F 53.6 °F 72% 29.61 in 7.0 mi NE 12.7 mph 17.3 mph 0.07 in Thunderstorm Thunderstorm
2:35 AM 62.6 °F 53.6 °F 72% 29.61 in 10.0 mi NE 5.8 mph - 0.11 in Thunderstorm Mostly Cloudy
3:15 AM 60.8 °F 51.8 °F 72% 29.60 in 8.0 mi East 6.9 mph - 0.07 in Thunderstorm Overcast
3:35 AM 60.8 °F 51.8 °F 72% 29.58 in 10.0 mi East 10.4 mph - 0.14 in Thunderstorm Overcast
3:55 AM 60.8 °F 51.8 °F 72% 29.60 in 8.0 mi East 5.8 mph - 0.19 in Thunderstorm Thunderstorm
4:15 AM 60.8 °F 51.8 °F 72% 29.63 in 10.0 mi WSW 9.2 mph - 0.03 in   Overcast
4:35 AM 60.8 °F 51.8 °F 72% 29.68 in 10.0 mi WSW 11.5 mph - 0.09 in   Mostly Cloudy
4:55 AM 60.8 °F 51.8 °F 72% 29.70 in 10.0 mi SSW 9.2 mph - 0.21 in   Mostly Cloudy
5:15 AM 60.8 °F 51.8 °F 72% 29.72 in 10.0 mi SSW 9.2 mph - 0.07 in Thunderstorm Thunderstorm
5:35 AM 60.8 °F 51.8 °F 72% 29.69 in 10.0 mi Calm Calm - 0.14 in Thunderstorm Overcast
5:55 AM 60.8 °F 51.8 °F 72% 29.71 in 10.0 mi South 8.1 mph - 0.16 in   Overcast
6:15 AM 60.8 °F 51.8 °F 72% 29.71 in 10.0 mi SE 9.2 mph - 0.04 in   Mostly Cloudy
6:35 AM 60.8 °F 51.8 °F 72% 29.57 in 10.0 mi East 15.0 mph - 0.06 in   Overcast
6:55 AM 60.8 °F 51.8 °F 72% 29.56 in 10.0 mi East 11.5 mph 18.4 mph 0.06 in   Mostly Cloudy
7:15 AM 60.8 °F 50.0 °F 68% 29.55 in 10.0 mi East 11.5 mph - N/A   Clear
7:35 AM 60.8 °F 50.0 °F 68% 29.55 in 10.0 mi East 6.9 mph - N/A   Clear
7:55 AM 60.8 °F 51.8 °F 72% 29.56 in 10.0 mi SE 8.1 mph - N/A   Clear
8:15 AM 60.8 °F 51.8 °F 72% 29.56 in 10.0 mi SE 9.2 mph - N/A   Clear
8:35 AM 60.8 °F 51.8 °F 72% 29.56 in 10.0 mi SE 10.4 mph 16.1 mph N/A   Scattered Clouds
8:55 AM 62.6 °F 50.0 °F 63% 29.54 in 10.0 mi SE 10.4 mph 16.1 mph N/A   Mostly Cloudy
9:15 AM 62.6 °F 51.8 °F 68% 29.56 in 10.0 mi SSE 15.0 mph 24.2 mph N/A   Scattered Clouds
9:55 AM 62.6 °F 51.8 °F 68% 29.57 in 10.0 mi South 12.7 mph - N/A   Clear
10:15 AM 64.4 °F 51.8 °F 64% 29.59 in 10.0 mi South 15.0 mph 20.7 mph N/A   Clear
10:35 AM - - N/A% 29.58 in 10.0 mi SSE 19.6 mph 26.5 mph N/A   Clear
10:55 AM - - N/A% 29.58 in 10.0 mi SSE 18.4 mph 24.2 mph N/A   Clear
11:15 AM - - N/A% 29.58 in 10.0 mi SSE 17.3 mph 31.1 mph N/A   Clear
11:35 AM 69.8 °F 55.4 °F 60% 29.58 in 9.0 mi SSE 17.3 mph 25.3 mph N/A   Partly Cloudy
11:55 AM - - N/A% 29.57 in 10.0 mi South 18.4 mph 29.9 mph N/A   Mostly Cloudy
12:15 PM - - N/A% 29.57 in 10.0 mi South 18.4 mph 26.5 mph N/A   Overcast
12:35 PM - - N/A% 29.60 in 10.0 mi South 21.9 mph 33.4 mph N/A   Overcast
12:55 PM - - N/A% 29.58 in 10.0 mi SSE 17.3 mph 27.6 mph N/A   Overcast
1:15 PM - - N/A% 29.57 in 10.0 mi South 13.8 mph 23.0 mph N/A   Overcast
1:35 PM - - N/A% 29.57 in 10.0 mi SSE 16.1 mph - N/A   Mostly Cloudy
1:55 PM - - N/A% 29.56 in 10.0 mi South 13.8 mph 28.8 mph N/A   Mostly Cloudy
2:15 PM - - N/A% 29.54 in 10.0 mi South 15.0 mph 19.6 mph N/A   Overcast
2:55 PM - - N/A% 29.52 in 10.0 mi South 17.3 mph 24.2 mph N/A   Mostly Cloudy
3:15 PM - - N/A% 29.52 in 10.0 mi South 17.3 mph 24.2 mph N/A   Overcast
3:35 PM - - N/A% 29.51 in 10.0 mi SSE 18.4 mph 25.3 mph N/A   Overcast
4:15 PM - - N/A% 29.49 in 10.0 mi SSE 11.5 mph 23.0 mph N/A   Scattered Clouds
4:35 PM - - N/A% 29.48 in 10.0 mi SSE 11.5 mph 16.1 mph N/A   Mostly Cloudy
4:55 PM - - N/A% 29.49 in 10.0 mi SSE 18.4 mph 21.9 mph N/A   Overcast
5:15 PM - - N/A% 29.49 in 10.0 mi SSE 18.4 mph 26.5 mph N/A   Mostly Cloudy
5:35 PM - - N/A% 29.47 in 10.0 mi SE 12.7 mph 21.9 mph N/A   Scattered Clouds
5:55 PM - - N/A% 29.47 in 10.0 mi SE 16.1 mph 23.0 mph N/A   Clear
6:15 PM - - N/A% 29.46 in 10.0 mi SE 12.7 mph 23.0 mph N/A   Clear
6:35 PM - - N/A% 29.45 in 10.0 mi SSE 13.8 mph 19.6 mph N/A   Partly Cloudy
6:55 PM - - N/A% 29.46 in 10.0 mi SSE 19.6 mph 26.5 mph N/A   Partly Cloudy
7:15 PM - - N/A% 29.46 in 10.0 mi SSE 13.8 mph 24.2 mph N/A   Clear
7:35 PM - - N/A% 29.47 in 10.0 mi SSE 12.7 mph - N/A   Scattered Clouds
7:55 PM 66.2 °F 53.6 °F 64% 29.48 in 10.0 mi South 12.7 mph 18.4 mph N/A   Partly Cloudy
8:15 PM 66.2 °F 53.6 °F 64% 29.49 in 10.0 mi South 10.4 mph 16.1 mph N/A   Clear
8:35 PM 66.2 °F 55.4 °F 68% 29.50 in 10.0 mi South 11.5 mph 18.4 mph N/A   Clear
8:55 PM 64.4 °F 53.6 °F 68% 29.51 in 10.0 mi South 6.9 mph - N/A   Clear
9:15 PM 64.4 °F 53.6 °F 68% 29.52 in 10.0 mi SSE 5.8 mph - N/A   Clear
9:35 PM 64.4 °F 53.6 °F 68% 29.53 in 10.0 mi SSW 3.5 mph - N/A   Clear
9:55 PM 62.6 °F 53.6 °F 72% 29.54 in 10.0 mi West 5.8 mph - N/A   Clear
10:15 PM 64.4 °F 53.6 °F 68% 29.56 in 10.0 mi North 5.8 mph - N/A   Mostly Cloudy
10:35 PM 62.6 °F 48.2 °F 59% 29.55 in 10.0 mi North 5.8 mph - N/A   Partly Cloudy
10:55 PM 60.8 °F 46.4 °F 59% 29.55 in 10.0 mi North 4.6 mph - N/A   Clear
11:15 PM 60.8 °F 46.4 °F 59% 29.57 in 10.0 mi Calm Calm - N/A   Clear
11:35 PM 57.2 °F 46.4 °F 67% 29.57 in 10.0 mi SW 4.6 mph - N/A   Clear
11:55 PM 57.2 °F 46.4 °F 67% 29.58 in 10.0 mi Calm Calm - N/A   Scattered Clouds